Location: Amarillo Post Office Jordan Station
(35.1907°N, 101.9342°W)
Time: 23:03:58
(UTC+00:00)

ERS-2 - Visible Passes

Search period start: 05 May 2021 00:00
Search period end: 15 May 2021 00:00
Orbit: 491 x 497 km, 98.6° (Epoch: 05 May)

Date Brightness Start Highest point End Pass type
(mag) Time Alt. Az. Time Alt. Az. Time Alt. Az.
05 May 2.0 02:04:51 10° NNE 02:08:28 70° ESE 02:12:04 10° S visible
06 May 5.5 03:18:34 10° NW 03:20:11 13° WNW 03:21:47 10° W visible
07 May 4.7 02:56:01 10° NNW 02:58:55 23° WNW 03:01:51 10° SW visible
08 May 3.3 02:34:08 10° N 02:37:36 45° WNW 02:41:04 10° SSW visible
09 May 2.0 02:12:36 10° NNE 02:16:14 84° ESE 02:19:50 10° SSW visible
10 May 5.6 03:26:57 10° NW 03:27:52 11° WNW 03:28:47 10° W visible
11 May 5.0 03:03:55 10° NNW 03:06:38 20° WNW 03:09:20 10° WSW visible
12 May 3.7 02:41:56 10° N 02:45:19 38° WNW 02:48:42 10° SW visible
13 May 2.2 02:20:18 10° N 02:23:56 82° WNW 02:27:33 10° SSW visible
